カーンズ-クェー彗星

59P/Kearns-Kwee (2018)

English version
Home page
Updated on September 23, 2018

---------------------------------------------------------------------

・ プロフィール

・ 写真集

・ 軌道要素

Epoch 2018 Aug. 30.0 TT = JDT 2458360.5
T 2018 Sept. 16.78417 TT                                MPCW
q   2.3587693            (2000.0)            P               Q
n   0.10342519     Peri.  127.70560     +0.15677659     -0.98043662
a   4.4948840      Node   312.82807     +0.84737579     +0.19543335
e   0.4752324      Incl.    9.33940     +0.50732177     -0.02344859
P   9.53
From 780 observations 2008 July 28-2018 Sept. 16, mean residual 0".6.
     Nongravitational parameters A1 = -2.72, A2 = -2.9726.

・ 星図

・ 光度変化

        m1 = 9.5 + 5 logΔ + 15.0 log r

---------------------------------------------------------------------

軌道要素はM.P.E.C. 2018-S50に掲載されたものです。
星図はステラナビゲータ Ver.10 (アストロアーツ) で作成したものです。
光度グラフはComet for Windowsで作成したものです。

---------------------------------------------------------------------

Copyright(C) Seiichi Yoshida (comet@aerith.net). All rights reserved.